When you browse on this site, cookies collect data to enhance your experience and personalize the content and advertising you see.
Visit our Privacy Policy to learn more. By continuing to use the site, you agree to this use of cookies and data.
  • In Switzerland
  • List of Countries
  • For 7 days
  • Water Temperature
  • Weather Map
  • Weather Widgets
  • user-avatar
    Login

    Hourly Weather Weinheim

    Today, 3 June, Wednesday

    Time Temperature Precipitation Wind Pressure Humidity
    00:00 +19°C° 0 mm 1 mps 747 mmHg 68%
    01:00 +18°C° 0 mm 1 mps 746 mmHg 69%
    02:00 +18°C° 0.1 mm 1 mps 746 mmHg 71%
    03:00 +18°C° 0.1 mm 1 mps 745 mmHg 73%
    04:00 +16°C° 0.1 mm 1 mps 744 mmHg 74%
    05:00 +18°C° 0.1 mm 1 mps 744 mmHg 75%
    06:00 +19°C° 0.1 mm 1 mps 744 mmHg 75%
    07:00 +19°C° 0.1 mm 1 mps 744 mmHg 75%
    08:00 +21°C° 0.4 mm 1 mps 744 mmHg 71%
    09:00 +23°C° 0.4 mm 1 mps 743 mmHg 67%
    10:00 +24°C° 0.4 mm 1 mps 743 mmHg 63%
    11:00 +25°C° 0.5 mm 1 mps 742 mmHg 57%
    12:00 +26°C° 0.5 mm 1 mps 742 mmHg 52%
    13:00 +27°C° 0.5 mm 2 mps 741 mmHg 46%
    14:00 +27°C° 0.1 mm 2 mps 741 mmHg 45%
    15:00 +27°C° 0.1 mm 2 mps 740 mmHg 44%
    16:00 +28°C° 0.1 mm 2 mps 740 mmHg 43%
    17:00 +27°C° 0.1 mm 2 mps 739 mmHg 49%
    18:00 +25°C° 0.1 mm 2 mps 739 mmHg 55%
    19:00 +24°C° 0.1 mm 2 mps 738 mmHg 61%
    20:00 +21°C° 0.5 mm 2 mps 738 mmHg 68%
    21:00 +21°C° 0.5 mm 1 mps 738 mmHg 74%
    22:00 +19°C° 0.5 mm 1 mps 738 mmHg 80%
    23:00 +19°C° 0.2 mm 1 mps 738 mmHg 81%

    Tomorrow, 4 June, Thursday

    Time Temperature Precipitation Wind Pressure Humidity
    00:00 +18°C° 0.2 mm 1 mps 738 mmHg 82%
    01:00 +18°C° 0.2 mm 1 mps 737 mmHg 83%
    02:00 +18°C° 0.6 mm 1 mps 737 mmHg 84%
    03:00 +17°C° 0.6 mm 2 mps 737 mmHg 86%
    04:00 +17°C° 0.6 mm 2 mps 736 mmHg 87%
    05:00 +17°C° 0.3 mm 2 mps 736 mmHg 86%
    06:00 +18°C° 0.3 mm 2 mps 736 mmHg 84%
    07:00 +18°C° 0.3 mm 2 mps 735 mmHg 82%
    08:00 +19°C° 0.4 mm 3 mps 735 mmHg 77%
    09:00 +20°C° 0.4 mm 3 mps 735 mmHg 72%
    10:00 +21°C° 0.4 mm 4 mps 735 mmHg 67%
    11:00 +21°C° 0.8 mm 4 mps 735 mmHg 68%
    12:00 +21°C° 0.8 mm 4 mps 735 mmHg 70%
    13:00 +21°C° 0.8 mm 4 mps 734 mmHg 71%
    14:00 +20°C° 0.7 mm 3 mps 734 mmHg 71%
    15:00 +20°C° 0.7 mm 3 mps 734 mmHg 71%
    16:00 +20°C° 0.7 mm 3 mps 734 mmHg 71%
    17:00 +19°C° 0.5 mm 3 mps 735 mmHg 73%
    18:00 +18°C° 0.5 mm 3 mps 735 mmHg 76%
    19:00 +17°C° 0.5 mm 4 mps 735 mmHg 78%
    20:00 +16°C° 0.1 mm 3 mps 735 mmHg 79%
    21:00 +14°C° 0.1 mm 3 mps 736 mmHg 79%
    22:00 +13°C° 0.1 mm 3 mps 736 mmHg 79%
    23:00 +13°C° 0 mm 2 mps 737 mmHg 79%

    Day after tomorrow, 5 June, Friday

    Time Temperature Precipitation Wind Pressure Humidity
    00:00 +13°C° 0 mm 2 mps 737 mmHg 79%
    01:00 +13°C° 0 mm 2 mps 737 mmHg 79%
    02:00 +12°C° 0 mm 2 mps 737 mmHg 80%
    03:00 +10°C° 0 mm 2 mps 738 mmHg 81%
    04:00 +10°C° 0 mm 2 mps 738 mmHg 81%
    05:00 +10°C° 0 mm 2 mps 738 mmHg 77%
    06:00 +12°C° 0 mm 2 mps 738 mmHg 72%
    07:00 +13°C° 0 mm 2 mps 738 mmHg 68%
    08:00 +13°C° 0 mm 2 mps 738 mmHg 67%
    09:00 +12°C° 0 mm 3 mps 738 mmHg 66%
    10:00 +13°C° 0 mm 4 mps 738 mmHg 65%
    11:00 +14°C° 0.2 mm 5 mps 738 mmHg 62%
    12:00 +16°C° 0.2 mm 5 mps 738 mmHg 59%
    13:00 +17°C° 0.2 mm 6 mps 738 mmHg 57%
    14:00 +16°C° 0.4 mm 7 mps 738 mmHg 61%
    15:00 +16°C° 0.4 mm 7 mps 737 mmHg 66%
    16:00 +15°C° 0.4 mm 7 mps 737 mmHg 70%
    17:00 +14°C° 0.4 mm 7 mps 738 mmHg 75%
    18:00 +13°C° 0.4 mm 6 mps 738 mmHg 80%
    19:00 +11°C° 0.4 mm 6 mps 738 mmHg 85%
    20:00 +12°C° 0.6 mm 5 mps 739 mmHg 85%
    21:00 +12°C° 0.6 mm 5 mps 739 mmHg 85%
    22:00 +12°C° 0.6 mm 4 mps 739 mmHg 85%
    23:00 +12°C° 0.6 mm 4 mps 739 mmHg 85%

    6 June, Saturday

    Time Temperature Precipitation Wind Pressure Humidity
    00:00 +11°C° 0.6 mm 3 mps 740 mmHg 85%
    01:00 +11°C° 0.6 mm 3 mps 740 mmHg 85%
    02:00 +11°C° 0.4 mm 3 mps 740 mmHg 86%
    03:00 +11°C° 0.4 mm 3 mps 740 mmHg 88%
    04:00 +12°C° 0.4 mm 2 mps 740 mmHg 90%
    05:00 +12°C° 0.9 mm 2 mps 740 mmHg 91%
    06:00 +12°C° 0.9 mm 2 mps 740 mmHg 91%
    07:00 +12°C° 0.9 mm 2 mps 740 mmHg 91%
    08:00 +12°C° 0.8 mm 2 mps 740 mmHg 91%
    09:00 +12°C° 0.8 mm 2 mps 741 mmHg 91%
    10:00 +12°C° 0.8 mm 2 mps 741 mmHg 91%
    11:00 +13°C° 0.2 mm 3 mps 741 mmHg 88%
    12:00 +14°C° 0.2 mm 3 mps 741 mmHg 84%
    13:00 +15°C° 0.2 mm 4 mps 741 mmHg 81%
    14:00 +14°C° 0.3 mm 4 mps 741 mmHg 83%
    15:00 +14°C° 0.3 mm 4 mps 741 mmHg 84%
    16:00 +13°C° 0.3 mm 4 mps 741 mmHg 86%
    17:00 +13°C° 0.1 mm 4 mps 741 mmHg 86%
    18:00 +13°C° 0.1 mm 4 mps 741 mmHg 86%
    19:00 +13°C° 0.1 mm 3 mps 741 mmHg 87%
    20:00 +12°C° 0 mm 3 mps 742 mmHg 88%
    21:00 +12°C° 0 mm 3 mps 742 mmHg 89%
    22:00 +13°C° 0 mm 2 mps 743 mmHg 90%
    23:00 +13°C° 0 mm 2 mps 742 mmHg 91%

    7 June, Sunday

    Time Temperature Precipitation Wind Pressure Humidity
    00:00 +13°C° 0 mm 2 mps 742 mmHg 91%
    01:00 +13°C° 0 mm 1 mps 742 mmHg 91%
    02:00 +13°C° 0.1 mm 1 mps 742 mmHg 92%
    03:00 +13°C° 0.1 mm 1 mps 742 mmHg 92%
    04:00 +13°C° 0.1 mm 1 mps 742 mmHg 93%
    05:00 +13°C° 0.2 mm 1 mps 742 mmHg 92%
    06:00 +13°C° 0.2 mm 1 mps 742 mmHg 91%
    07:00 +13°C° 0.2 mm 0 mps 742 mmHg 90%
    08:00 +13°C° 0.3 mm 1 mps 742 mmHg 89%
    09:00 +13°C° 0.3 mm 1 mps 743 mmHg 88%
    10:00 +13°C° 0.3 mm 1 mps 743 mmHg 87%
    11:00 +13°C° 0.8 mm 2 mps 743 mmHg 86%
    12:00 +11°C° 0.8 mm 3 mps 744 mmHg 84%
    13:00 +10°C° 0.8 mm 3 mps 745 mmHg 83%
    14:00 +11°C° 0 mm 3 mps 745 mmHg 77%
    15:00 +12°C° 0 mm 3 mps 745 mmHg 71%
    16:00 +14°C° 0 mm 3 mps 746 mmHg 65%
    17:00 +14°C° 0 mm 3 mps 746 mmHg 65%
    18:00 +14°C° 0 mm 3 mps 746 mmHg 65%
    19:00 +14°C° 0 mm 3 mps 746 mmHg 66%
    20:00 +13°C° 0 mm 3 mps 746 mmHg 71%
    21:00 +12°C° 0 mm 2 mps 747 mmHg 76%
    22:00 +10°C° 0 mm 2 mps 747 mmHg 81%
    23:00 +10°C° 0 mm 2 mps 747 mmHg 82%

    8 June, Monday

    Time Temperature Precipitation Wind Pressure Humidity
    00:00 +9°C° 0 mm 2 mps 747 mmHg 83%
    01:00 +9°C° 0 mm 2 mps 747 mmHg 84%
    02:00 +9°C° 0 mm 2 mps 747 mmHg 83%
    03:00 +8°C° 0 mm 2 mps 747 mmHg 83%
    04:00 +8°C° 0 mm 2 mps 747 mmHg 83%
    05:00 +9°C° 0 mm 2 mps 747 mmHg 78%
    06:00 +12°C° 0 mm 2 mps 747 mmHg 74%
    07:00 +13°C° 0 mm 2 mps 747 mmHg 69%
    08:00 +13°C° 0 mm 3 mps 747 mmHg 64%
    09:00 +16°C° 0 mm 3 mps 747 mmHg 59%
    10:00 +18°C° 0 mm 3 mps 747 mmHg 54%
    11:00 +19°C° 0.1 mm 4 mps 747 mmHg 50%
    12:00 +20°C° 0.1 mm 4 mps 747 mmHg 46%
    13:00 +20°C° 0.1 mm 4 mps 747 mmHg 42%
    14:00 +20°C° 0.2 mm 4 mps 747 mmHg 46%
    15:00 +20°C° 0.2 mm 4 mps 747 mmHg 50%
    16:00 +20°C° 0.2 mm 4 mps 747 mmHg 54%
    17:00 +19°C° 0.2 mm 4 mps 747 mmHg 58%
    18:00 +18°C° 0.2 mm 3 mps 747 mmHg 63%
    19:00 +17°C° 0.2 mm 3 mps 747 mmHg 67%
    20:00 +16°C° 0 mm 3 mps 747 mmHg 71%
    21:00 +14°C° 0 mm 3 mps 748 mmHg 74%
    22:00 +13°C° 0 mm 2 mps 748 mmHg 78%
    23:00 +13°C° 0 mm 2 mps 748 mmHg 80%
    Show more